Location: Meanaryar
(48.4161°N, 4.7315°W)
Time: 17:28:59
(UTC+00:00)

Nadezhda 4 Rocket - Pass Details

Date: 18 September 2020
Orbit: 949 x 992 km, 82.9° (Epoch: 29 October)

Event Time Altitude Azimuth Distance (km) Brightness Sun altitude
Rises 20:35:13 0° 348° (NNW) 3,640 7.6 -21.6°
Reaches altitude 10° 20:37:45 10° 344° (NNW) 2,688 6.9 -21.9°
Maximum altitude 20:43:46 59° 267° (W) 1,091 4.4 -22.8°
Enters shadow 20:49:19 12° 190° (S) 2,522 5.9 -23.6°
